CHB6436 ZSHC-ZUCK

Flight info

Callsign CHB6436
Flight time N/A
Altitude 32100
Route K0854S1100 NIV92D NIVIK W135 DOGVI W545 VEMEX W73 MADUK W51 LEGIV W164 ADGOL W50 XSH W80 IRPOG IRPOG2H
Aircraft A320/M-SDE3FGHIRWY/LB1

Departure

Time N/A
Airport Hangzhou Xiaoshan International Airport (ZSHC)

Arrival

Time 2026-04-28 13:14
Airport Chongqing Jiangbei International Airport (ZUCK)
Time Latitude Longitude Altitude Speed Heading
2026-04-28 12:32 29.92461 107.09509 19976 ft 437 kts 233°
2026-04-28 12:33 29.90585 107.06753 19533 ft 436 kts 233°
2026-04-28 12:33 29.88716 107.04005 19098 ft 436 kts 233°
2026-04-28 12:33 29.86841 107.01238 18663 ft 438 kts 233°
2026-04-28 12:33 29.84970 106.98468 18209 ft 438 kts 234°
2026-04-28 12:34 29.83117 106.95721 17714 ft 432 kts 234°
2026-04-28 12:34 29.81277 106.92994 17223 ft 430 kts 234°
2026-04-28 12:34 29.79441 106.90280 16744 ft 428 kts 233°
2026-04-28 12:34 29.77616 106.87586 16270 ft 426 kts 233°
2026-04-28 12:35 29.75787 106.84892 15898 ft 425 kts 233°
2026-04-28 12:35 29.73966 106.82215 15768 ft 425 kts 233°
2026-04-28 12:35 29.72079 106.79593 15652 ft 427 kts 226°
2026-04-28 12:35 29.69657 106.77678 15056 ft 421 kts 204°
2026-04-28 12:36 29.66954 106.76641 14470 ft 399 kts 198°
2026-04-28 12:36 29.64359 106.75759 13894 ft 380 kts 197°
2026-04-28 12:36 29.61881 106.74927 13243 ft 363 kts 197°
2026-04-28 12:36 29.59499 106.74127 12596 ft 350 kts 197°
2026-04-28 12:37 29.57205 106.73349 11969 ft 339 kts 197°
2026-04-28 12:37 29.55005 106.72596 11373 ft 330 kts 197°
2026-04-28 12:37 29.52836 106.71845 10762 ft 322 kts 197°
2026-04-28 12:37 29.50711 106.71103 10171 ft 316 kts 197°
2026-04-28 12:38 29.48629 106.70379 9538 ft 310 kts 197°
2026-04-28 12:38 29.46580 106.69669 8891 ft 305 kts 197°
2026-04-28 12:38 29.44561 106.68970 8257 ft 302 kts 197°
2026-04-28 12:38 29.42562 106.68277 7643 ft 299 kts 197°
2026-04-28 12:39 29.40581 106.67592 7028 ft 297 kts 197°
2026-04-28 12:39 29.38614 106.66902 6420 ft 293 kts 200°
2026-04-28 12:39 29.36938 106.65664 5786 ft 288 kts 231°
2026-04-28 12:39 29.36000 106.63687 5162 ft 280 kts 249°
2026-04-28 12:40 29.34981 106.61864 4935 ft 264 kts 223°
2026-04-28 12:40 29.33461 106.60867 4895 ft 243 kts 200°
2026-04-28 12:40 29.31887 106.60321 4902 ft 233 kts 197°
2026-04-28 12:40 29.30317 106.59887 4909 ft 233 kts 189°
2026-04-28 12:41 29.28704 106.59710 4904 ft 233 kts 185°
2026-04-28 12:41 29.27083 106.59596 4908 ft 233 kts 185°
2026-04-28 12:41 29.25525 106.59209 4903 ft 230 kts 208°
2026-04-28 12:41 29.24285 106.58081 4907 ft 226 kts 236°
2026-04-28 12:42 29.23650 106.56473 4912 ft 221 kts 263°
2026-04-28 12:42 29.23707 106.54736 4912 ft 219 kts 288°
2026-04-28 12:42 29.24417 106.53214 4911 ft 218 kts 313°
2026-04-28 12:42 29.25626 106.52204 4913 ft 217 kts 337°
2026-04-28 12:43 29.27109 106.51896 4907 ft 220 kts
2026-04-28 12:43 29.28619 106.52257 4907 ft 223 kts 13°
2026-04-28 12:43 29.30119 106.52708 4907 ft 223 kts 13°
2026-04-28 12:43 29.31617 106.53158 4906 ft 223 kts 13°
2026-04-28 12:44 29.33113 106.53609 4911 ft 222 kts 13°
2026-04-28 12:44 29.34610 106.54059 4908 ft 223 kts 13°
2026-04-28 12:44 29.36106 106.54505 4902 ft 221 kts 14°
2026-04-28 12:44 29.37592 106.54948 4905 ft 220 kts 14°
2026-04-28 12:45 29.39057 106.55386 4913 ft 221 kts 14°
2026-04-28 12:45 29.40539 106.55842 4914 ft 221 kts 15°
2026-04-28 12:45 29.42016 106.56338 4904 ft 221 kts 17°
2026-04-28 12:45 29.43491 106.56848 4910 ft 221 kts 16°
2026-04-28 12:46 29.44958 106.57357 4903 ft 221 kts 16°
2026-04-28 12:46 29.46428 106.57866 4907 ft 220 kts 17°
2026-04-28 12:46 29.47885 106.58371 4902 ft 219 kts 17°
2026-04-28 12:46 29.49350 106.58879 4900 ft 221 kts 16°
2026-04-28 12:47 29.50816 106.59388 4901 ft 220 kts 16°
2026-04-28 12:47 29.52289 106.59899 4905 ft 220 kts 16°
2026-04-28 12:47 29.53698 106.60388 4894 ft 201 kts 16°
2026-04-28 12:47 29.54992 106.60838 4769 ft 191 kts 15°
2026-04-28 12:48 29.56235 106.61269 4555 ft 183 kts 15°
2026-04-28 12:48 29.57424 106.61682 4339 ft 174 kts 17°
2026-04-28 12:48 29.58554 106.62075 4146 ft 166 kts 16°
2026-04-28 12:48 29.59654 106.62458 3894 ft 164 kts 15°
2026-04-28 12:49 29.60740 106.62835 3669 ft 163 kts 15°
2026-04-28 12:49 29.61826 106.63212 3455 ft 162 kts 16°
2026-04-28 12:49 29.62895 106.63585 3238 ft 157 kts 16°
2026-04-28 12:49 29.63903 106.63935 3034 ft 148 kts 15°
2026-04-28 12:50 29.64884 106.64277 2832 ft 146 kts 16°
2026-04-28 12:50 29.65855 106.64614 2647 ft 145 kts 15°
2026-04-28 12:50 29.66821 106.64950 2457 ft 145 kts 15°
2026-04-28 12:50 29.67783 106.65286 2253 ft 145 kts 15°
2026-04-28 12:51 29.68748 106.65622 2072 ft 145 kts 15°
2026-04-28 12:51 29.69709 106.65956 1870 ft 144 kts 16°
2026-04-28 12:51 29.70678 106.66298 1692 ft 146 kts 17°
2026-04-28 12:51 29.71626 106.66650 1488 ft 145 kts 15°
2026-04-28 12:52 29.72609 106.66967 1541 ft 151 kts 15°
2026-04-28 12:52 29.73640 106.67319 2082 ft 158 kts 15°
2026-04-28 12:52 29.74715 106.67700 2668 ft 163 kts 16°
2026-04-28 12:52 29.75814 106.68103 3043 ft 170 kts 17°
2026-04-28 12:53 29.76948 106.68580 3435 ft 176 kts 22°
2026-04-28 12:53 29.78077 106.69176 3835 ft 181 kts 26°
2026-04-28 12:53 29.79190 106.69888 4251 ft 185 kts 31°
2026-04-28 12:53 29.79910 106.70418 4541 ft 186 kts 34°
2026-04-28 12:54 29.81243 106.71652 4912 ft 179 kts 53°
2026-04-28 12:54 29.81568 106.72981 4909 ft 177 kts 95°
2026-04-28 12:54 29.81010 106.74224 4911 ft 181 kts 136°
2026-04-28 12:54 29.79838 106.74744 4914 ft 188 kts 175°
2026-04-28 12:55 29.78428 106.74654 4917 ft 215 kts 186°
2026-04-28 12:55 29.76932 106.74329 4901 ft 221 kts 191°
2026-04-28 12:55 29.75422 106.73931 4902 ft 227 kts 191°
2026-04-28 12:55 29.73846 106.73517 4914 ft 236 kts 192°
2026-04-28 12:56 29.72251 106.73095 4899 ft 235 kts 192°
2026-04-28 12:56 29.70660 106.72672 4909 ft 234 kts 192°
2026-04-28 12:56 29.69073 106.72250 4913 ft 235 kts 192°
2026-04-28 12:56 29.67500 106.71730 4908 ft 235 kts 196°
2026-04-28 12:57 29.65945 106.71157 4912 ft 235 kts 197°
2026-04-28 12:57 29.64392 106.70579 4912 ft 235 kts 197°
2026-04-28 12:57 29.62859 106.70006 4912 ft 235 kts 197°
2026-04-28 12:57 29.61307 106.69428 4904 ft 234 kts 197°
2026-04-28 12:58 29.59754 106.68871 4907 ft 233 kts 197°
2026-04-28 12:58 29.58193 106.68344 4914 ft 234 kts 197°
2026-04-28 12:58 29.56629 106.67820 4904 ft 235 kts 197°
2026-04-28 12:58 29.55050 106.67292 4681 ft 236 kts 197°
2026-04-28 12:59 29.53545 106.66653 4384 ft 226 kts 216°
2026-04-28 12:59 29.52542 106.65352 4109 ft 215 kts 249°
2026-04-28 12:59 29.52299 106.63752 4017 ft 200 kts 278°
2026-04-28 12:59 29.52739 106.62289 3998 ft 194 kts 306°
2026-04-28 13:00 29.53704 106.61258 3996 ft 190 kts 332°
2026-04-28 13:00 29.54962 106.60836 4010 ft 190 kts 358°
2026-04-28 13:00 29.56266 106.61105 4005 ft 193 kts 22°
2026-04-28 13:00 29.57502 106.61680 4005 ft 191 kts 16°
2026-04-28 13:01 29.58770 106.62136 3968 ft 192 kts 16°
2026-04-28 13:01 29.60023 106.62582 3782 ft 186 kts 16°
2026-04-28 13:01 29.61253 106.63012 3552 ft 183 kts 16°
2026-04-28 13:01 29.62462 106.63434 3320 ft 180 kts 16°
2026-04-28 13:02 29.63618 106.63836 3101 ft 164 kts 16°
2026-04-28 13:02 29.64316 106.64079 2949 ft 154 kts 16°
2026-04-28 13:02 29.65651 106.64544 2684 ft 147 kts 15°
2026-04-28 13:02 29.66622 106.64882 2488 ft 145 kts 15°
2026-04-28 13:03 29.67262 106.65104 2350 ft 145 kts 15°
2026-04-28 13:03 29.68543 106.65550 2107 ft 145 kts 15°
2026-04-28 13:03 29.69192 106.65778 1970 ft 144 kts 16°
2026-04-28 13:03 29.70146 106.66152 1761 ft 145 kts 17°
2026-04-28 13:04 29.71119 106.66459 1601 ft 146 kts 13°
2026-04-28 13:04 29.72089 106.66789 1383 ft 144 kts 16°
2026-04-28 13:04 29.72966 106.67085 1384 ft 127 kts 14°
2026-04-28 13:04 29.74248 106.67550 1861 ft 157 kts 17°
2026-04-28 13:05 29.74988 106.67818 2151 ft 176 kts 15°
2026-04-28 13:05 29.76243 106.68301 2788 ft 201 kts 26°
2026-04-28 13:05 29.77288 106.69423 3645 ft 216 kts 58°
2026-04-28 13:05 29.77681 106.71053 3930 ft 218 kts 90°
2026-04-28 13:06 29.77216 106.72692 4001 ft 219 kts 124°
2026-04-28 13:06 29.76018 106.73771 4017 ft 224 kts 158°
2026-04-28 13:06 29.74478 106.73936 4014 ft 226 kts 189°
2026-04-28 13:06 29.72971 106.73425 4008 ft 227 kts 200°
2026-04-28 13:07 29.71500 106.72770 4010 ft 227 kts 201°
2026-04-28 13:07 29.70033 106.72111 4006 ft 226 kts 199°
2026-04-28 13:07 29.68541 106.71550 4009 ft 225 kts 197°
2026-04-28 13:07 29.67038 106.71013 4002 ft 227 kts 197°
2026-04-28 13:08 29.65537 106.70483 4006 ft 224 kts 197°
2026-04-28 13:08 29.64055 106.69960 4005 ft 222 kts 197°
2026-04-28 13:08 29.62589 106.69445 4004 ft 215 kts 197°
2026-04-28 13:08 29.61191 106.68956 3971 ft 208 kts 197°
2026-04-28 13:09 29.59822 106.68490 3749 ft 202 kts 197°
2026-04-28 13:09 29.58499 106.67984 3505 ft 200 kts 210°
2026-04-28 13:09 29.57576 106.66857 3235 ft 194 kts 250°
2026-04-28 13:09 29.57494 106.65397 3063 ft 179 kts 289°
2026-04-28 13:10 29.58026 106.64180 3029 ft 167 kts 310°
2026-04-28 13:10 29.58879 106.63327 3034 ft 161 kts 331°
2026-04-28 13:10 29.59921 106.62902 3033 ft 160 kts 351°
2026-04-28 13:10 29.61022 106.62942 3067 ft 160 kts 11°
2026-04-28 13:11 29.62093 106.63303 3050 ft 159 kts 17°
2026-04-28 13:11 29.63108 106.63658 3028 ft 149 kts 16°
2026-04-28 13:11 29.64086 106.63998 2924 ft 145 kts 16°
2026-04-28 13:11 29.65050 106.64334 2801 ft 144 kts 16°
2026-04-28 13:12 29.66004 106.64666 2621 ft 143 kts 15°
2026-04-28 13:12 29.66957 106.64998 2429 ft 143 kts 15°
2026-04-28 13:12 29.67909 106.65330 2240 ft 143 kts 16°
2026-04-28 13:12 29.68859 106.65660 2057 ft 142 kts 15°
2026-04-28 13:13 29.69806 106.65990 1865 ft 143 kts 15°
2026-04-28 13:13 29.70748 106.66322 1677 ft 144 kts 17°
2026-04-28 13:13 29.71699 106.66662 1454 ft 142 kts 15°
2026-04-28 13:13 29.72626 106.66965 1345 ft 129 kts 16°
2026-04-28 13:14 29.73295 106.67208 1330 ft 60 kts 18°
2026-04-28 13:14 29.73485 106.67271 1330 ft 18 kts 10°
2026-04-28 13:14 29.73564 106.67278 1329 ft 24 kts
2026-04-28 13:14 29.73690 106.67261 1328 ft 23 kts 351°
2026-04-28 13:15 29.73848 106.67233 1324 ft 23 kts 351°
2026-04-28 13:15 29.73993 106.67190 1320 ft 15 kts 319°
2026-04-28 13:15 29.74010 106.67148 1319 ft 2 kts 259°
2026-04-28 13:15 29.74006 106.67081 1318 ft 14 kts 280°
2026-04-28 13:16 29.74033 106.66977 1317 ft 14 kts 286°
2026-04-28 13:16 29.74059 106.66876 1318 ft 13 kts 287°
2026-04-28 13:16 29.74069 106.66840 1318 ft 12 kts 287°
2026-04-28 13:16 29.74091 106.66759 1319 ft 11 kts 289°
2026-04-28 13:17 29.74090 106.66647 1321 ft 11 kts 239°
2026-04-28 13:17 29.74056 106.66628 1322 ft 7 kts 181°
2026-04-28 13:17 29.73894 106.66595 1322 ft 32 kts 197°
2026-04-28 13:17 29.73688 106.66523 1324 ft 30 kts 198°
2026-04-28 13:18 29.73651 106.66416 1329 ft 15 kts 289°
2026-04-28 13:18 29.73735 106.66105 1335 ft 45 kts 288°
2026-04-28 13:18 29.73808 106.65836 1347 ft 21 kts 291°
2026-04-28 13:18 29.73835 106.65691 1352 ft 14 kts 245°
2026-04-28 13:19 29.73754 106.65648 1350 ft 22 kts 196°
2026-04-28 13:19 29.73557 106.65541 1353 ft 32 kts 206°
2026-04-28 13:19 29.73353 106.65448 1354 ft 31 kts 197°
2026-04-28 13:19 29.73163 106.65416 1355 ft 23 kts 153°
2026-04-28 13:20 29.73080 106.65527 1351 ft 15 kts 154°
2026-04-28 13:20 29.72996 106.65554 1350 ft 9 kts 169°
2026-04-28 13:20 29.72976 106.65560 1351 ft 0 kts 165°